sat.trackr.live / text

‹ back to catalog

STARLINK-11297 [DTC]

NORAD 61060 · 2024-164L

PAYLOAD ACTIVE UNKNOWN

§ Identity

Operator
Country
US
Launch date
2024-09-13
Launch site
AFWTR
Launch vehicle
Mass (kg)
RCS (m²)

Purposes: comms

External: N2YO · Heavens-Above · Gunter

§ Orbital elements

Epoch: 2026-09-21T21:38:01.083552Z

Period
91.74 min
Inclination
53.1592°
Eccentricity
0.0000940
Mean motion
15.69710981 rev/d
Perigee alt
359.1 km
Apogee alt
360.4 km
Semi-major
6,737.9 km
B*
4.3886e-6
RAAN
64.1974°
Arg perigee
65.2012°
Mean anomaly
294.9103°
Rev number
11,623

§ Raw data

STARLINK-11297 [DTC]1 61060U 24164L   26264.90140143 -.00000057  00000+0  43886-5 0  99982 61060  53.1592  64.1974 0000940  65.2012 294.9103 15.69710981116238

JSON: /api/v1/satellites/61060 · /tle

For live sub-satellite position, see the globe view (requires WebGL).

§ Visibility from observer

Set your observer location to see the next 7 days of passes ≥ 10°. The values pass through the URL so the page stays shareable.

No JS? Fill the form by hand. The geolocation button needs JavaScript.